AFL114 UUEE-CYYZ

Flight info

Callsign AFL114
Flight time N/A
Altitude 36000
Route LIDRI3H LIDRI T781 REPNU N609 KUGEK M869 OPOKA0 M869 VEDEN DCT IBREK DCT TINAC DCT REKNA DCT UPGET DCT ORSUM DCT ERAKA DCT 60N020W 61N030W 61N040W 60N050W DCT URTAK/N0495F380 DCT ALSOP DCT JOVIE/N0497F400 DCT MT J545 YVO DCT IMEBA IMEBA9
Aircraft A359/H-SDE2E3GHIJ3J4J5LM1ORWXY/LB1D1

Departure

Time 2026-05-07 23:11
Airport Sheremetyevo International Airport (UUEE)

Arrival

Time N/A
Airport Toronto Pearson International Airport (CYYZ)
Time Latitude Longitude Altitude Speed Heading
2026-05-07 22:43 55.97738 37.40996 645 ft 0 kts 75°
2026-05-07 23:00 55.97736 37.40979 645 ft 2 kts 75°
2026-05-07 23:00 55.97732 37.40954 647 ft 3 kts 96°
2026-05-07 23:01 55.97735 37.40930 651 ft 3 kts 127°
2026-05-07 23:01 55.97747 37.40907 649 ft 3 kts 147°
2026-05-07 23:01 55.97763 37.40890 650 ft 3 kts 159°
2026-05-07 23:01 55.97778 37.40881 647 ft 1 kts 165°
2026-05-07 23:02 55.97783 37.40879 646 ft 0 kts 165°
2026-05-07 23:04 55.97779 37.40881 645 ft 4 kts 165°
2026-05-07 23:04 55.97745 37.40898 645 ft 6 kts 165°
2026-05-07 23:04 55.97704 37.40918 651 ft 7 kts 165°
2026-05-07 23:04 55.97651 37.40943 645 ft 9 kts 165°
2026-05-07 23:05 55.97608 37.41008 647 ft 8 kts 101°
2026-05-07 23:05 55.97600 37.41110 648 ft 8 kts 118°
2026-05-07 23:05 55.97554 37.41172 645 ft 8 kts 131°
2026-05-07 23:05 55.97549 37.41271 648 ft 9 kts 79°
2026-05-07 23:06 55.97564 37.41387 648 ft 10 kts 76°
2026-05-07 23:06 55.97584 37.41513 645 ft 11 kts 75°
2026-05-07 23:06 55.97604 37.41645 648 ft 11 kts 75°
2026-05-07 23:06 55.97628 37.41803 645 ft 16 kts 75°
2026-05-07 23:07 55.97657 37.41992 645 ft 16 kts 75°
2026-05-07 23:07 55.97686 37.42188 645 ft 17 kts 75°
2026-05-07 23:07 55.97716 37.42390 645 ft 17 kts 75°
2026-05-07 23:07 55.97747 37.42597 645 ft 18 kts 75°
2026-05-07 23:08 55.97779 37.42811 647 ft 18 kts 75°
2026-05-07 23:08 55.97811 37.43028 646 ft 18 kts 75°
2026-05-07 23:08 55.97844 37.43249 645 ft 18 kts 75°
2026-05-07 23:08 55.97877 37.43473 645 ft 19 kts 75°
2026-05-07 23:09 55.97911 37.43698 645 ft 18 kts 75°
2026-05-07 23:09 55.97941 37.43892 645 ft 11 kts 75°
2026-05-07 23:09 55.97946 37.43988 645 ft 5 kts 105°
2026-05-07 23:09 55.97922 37.44025 645 ft 5 kts 151°
2026-05-07 23:10 55.97878 37.44055 645 ft 7 kts 162°
2026-05-07 23:10 55.97815 37.44060 646 ft 10 kts 198°
2026-05-07 23:10 55.97774 37.43963 646 ft 10 kts 250°
2026-05-07 23:10 55.97733 37.43699 646 ft 50 kts 255°
2026-05-07 23:11 55.97590 37.42735 646 ft 109 kts 255°
2026-05-07 23:11 55.97347 37.41120 655 ft 159 kts 255°
2026-05-07 23:11 55.97042 37.39218 1170 ft 158 kts 253°
2026-05-07 23:11 55.96718 37.37317 1635 ft 162 kts 252°
2026-05-07 23:12 55.96378 37.35358 1956 ft 172 kts 251°
2026-05-07 23:12 55.96012 37.33203 2081 ft 193 kts 252°
2026-05-07 23:12 55.95647 37.30773 2231 ft 214 kts 255°
2026-05-07 23:12 55.95301 37.28098 2491 ft 230 kts 256°
2026-05-07 23:13 55.94962 37.25223 2929 ft 238 kts 256°
2026-05-07 23:13 55.94647 37.22344 3461 ft 242 kts 257°
2026-05-07 23:13 55.94330 37.19324 4047 ft 244 kts 257°
2026-05-07 23:13 55.94026 37.16351 4660 ft 245 kts 257°
2026-05-07 23:14 55.93721 37.13340 5275 ft 246 kts 256°
2026-05-07 23:14 55.93443 37.10568 5895 ft 244 kts 256°
2026-05-07 23:14 55.93144 37.07591 6514 ft 244 kts 256°
2026-05-07 23:14 55.92846 37.04615 7136 ft 244 kts 256°
2026-05-07 23:15 55.92545 37.01624 7683 ft 247 kts 256°
2026-05-07 23:15 55.92239 36.98595 8241 ft 249 kts 256°
2026-05-07 23:15 55.91932 36.95542 8831 ft 251 kts 256°
2026-05-07 23:15 55.91623 36.92482 9447 ft 251 kts 256°
2026-05-07 23:16 55.91310 36.89399 10024 ft 254 kts 256°
2026-05-07 23:16 55.90992 36.86230 10281 ft 267 kts 257°
2026-05-07 23:16 55.90680 36.82877 10500 ft 281 kts 256°
2026-05-07 23:16 55.90339 36.79366 10706 ft 295 kts 257°
2026-05-07 23:17 55.90010 36.75689 10915 ft 308 kts 258°
2026-05-07 23:17 55.89712 36.71823 11139 ft 320 kts 259°
2026-05-07 23:17 55.89442 36.67811 11344 ft 331 kts 261°
2026-05-07 23:17 55.89188 36.63670 11602 ft 340 kts 261°
2026-05-07 23:18 55.88941 36.59458 12004 ft 343 kts 261°
2026-05-07 23:18 55.88692 36.55213 12447 ft 346 kts 261°
2026-05-07 23:18 55.88436 36.50951 12875 ft 349 kts 261°
2026-05-07 23:18 55.88167 36.46626 13314 ft 351 kts 261°
2026-05-07 23:19 55.87892 36.42293 13731 ft 354 kts 261°
2026-05-07 23:19 55.87609 36.37924 14103 ft 356 kts 261°
2026-05-07 23:19 55.87321 36.33514 14490 ft 358 kts 261°
2026-05-07 23:19 55.87030 36.29102 14886 ft 360 kts 261°
2026-05-07 23:20 55.86734 36.24658 15266 ft 363 kts 261°
2026-05-07 23:20 55.86436 36.20191 15660 ft 365 kts 261°
2026-05-07 23:20 55.86140 36.15761 16073 ft 366 kts 261°
2026-05-07 23:20 55.85832 36.11231 16370 ft 372 kts 261°
2026-05-07 23:21 55.85520 36.06638 16709 ft 375 kts 261°
2026-05-07 23:21 55.85207 36.02024 17129 ft 376 kts 261°
2026-05-07 23:21 55.84891 35.97398 17512 ft 378 kts 261°
2026-05-07 23:21 55.84570 35.92728 17889 ft 381 kts 261°
2026-05-07 23:22 55.84246 35.88035 18260 ft 383 kts 261°
2026-05-07 23:22 55.83918 35.83320 18582 ft 385 kts 261°
2026-05-07 23:22 55.83587 35.78588 18910 ft 387 kts 261°
2026-05-07 23:22 55.83252 35.73832 19237 ft 388 kts 261°
2026-05-07 23:23 55.83028 35.70669 19451 ft 389 kts 261°
2026-05-07 23:23 55.82687 35.65883 19758 ft 391 kts 261°
2026-05-07 23:23 55.82343 35.61070 20077 ft 393 kts 261°
2026-05-07 23:23 55.81995 35.56234 20386 ft 395 kts 261°
2026-05-07 23:24 55.81643 35.51372 20713 ft 397 kts 261°
2026-05-07 23:24 55.81288 35.46499 21014 ft 398 kts 261°
2026-05-07 23:24 55.80930 35.41603 21324 ft 400 kts 261°
2026-05-07 23:24 55.80569 35.36687 21631 ft 402 kts 261°
2026-05-07 23:25 55.80204 35.31747 21931 ft 404 kts 260°
2026-05-07 23:25 55.79835 35.26790 22235 ft 405 kts 260°
2026-05-07 23:25 55.79463 35.21814 22532 ft 407 kts 260°
2026-05-07 23:25 55.79086 35.16820 22832 ft 409 kts 260°
2026-05-07 23:26 55.78706 35.11794 23110 ft 411 kts 260°
2026-05-07 23:26 55.78323 35.06763 23393 ft 413 kts 260°
2026-05-07 23:26 55.77940 35.01758 23652 ft 414 kts 260°
2026-05-07 23:26 55.77545 34.96609 23902 ft 416 kts 260°
2026-05-07 23:27 55.76754 34.86392 24386 ft 419 kts 260°
2026-05-07 23:27 55.76357 34.81322 24633 ft 421 kts 260°
2026-05-07 23:27 55.75952 34.76169 24890 ft 422 kts 260°
2026-05-07 23:28 55.75543 34.70998 25131 ft 424 kts 260°
2026-05-07 23:28 55.75130 34.65809 25380 ft 425 kts 259°
2026-05-07 23:28 55.74713 34.60601 25634 ft 427 kts 259°
2026-05-07 23:28 55.74294 34.55382 25899 ft 428 kts 259°
2026-05-07 23:29 55.73869 34.50135 26132 ft 430 kts 259°
2026-05-07 23:29 55.73441 34.44864 26389 ft 432 kts 259°
2026-05-07 23:29 55.73010 34.39590 26658 ft 433 kts 259°
2026-05-07 23:29 55.72574 34.34289 26915 ft 435 kts 259°
2026-05-07 23:30 55.72135 34.28968 27181 ft 436 kts 259°
2026-05-07 23:30 55.71692 34.23647 27431 ft 438 kts 259°
2026-05-07 23:30 55.71245 34.18296 27695 ft 440 kts 259°
2026-05-07 23:30 55.70793 34.12913 27970 ft 441 kts 259°
2026-05-07 23:31 55.70338 34.07529 28224 ft 443 kts 259°
2026-05-07 23:31 55.69878 34.02112 28492 ft 445 kts 259°
2026-05-07 23:31 55.69413 33.96672 28757 ft 446 kts 259°
2026-05-07 23:31 55.68951 33.91291 29008 ft 448 kts 259°
2026-05-07 23:32 55.68480 33.85833 29260 ft 450 kts 259°
2026-05-07 23:32 55.68002 33.80332 29519 ft 451 kts 259°
2026-05-07 23:32 55.67522 33.74832 29774 ft 453 kts 259°
2026-05-07 23:32 55.67037 33.69301 30022 ft 455 kts 259°
2026-05-07 23:33 55.66548 33.63760 30237 ft 457 kts 259°
2026-05-07 23:33 55.66055 33.58196 30475 ft 458 kts 259°
2026-05-07 23:33 55.65642 33.52616 30775 ft 458 kts 263°
2026-05-07 23:33 55.65581 33.46986 31105 ft 458 kts 270°
2026-05-07 23:34 55.65948 33.41380 31446 ft 459 kts 277°
2026-05-07 23:34 55.66760 33.35914 31779 ft 460 kts 285°
2026-05-07 23:34 55.68039 33.30712 32095 ft 463 kts 293°
2026-05-07 23:34 55.69724 33.25831 32428 ft 465 kts 299°
2026-05-07 23:35 55.71666 33.21247 32763 ft 466 kts 303°
2026-05-07 23:35 55.73751 33.16836 33107 ft 466 kts 305°
2026-05-07 23:35 55.75885 33.12524 33430 ft 465 kts 305°
2026-05-07 23:35 55.78031 33.08227 33750 ft 464 kts 305°
2026-05-07 23:36 55.80163 33.03918 34044 ft 463 kts 305°
2026-05-07 23:36 55.82271 32.99598 34302 ft 462 kts 304°
2026-05-07 23:36 55.84359 32.95267 34592 ft 461 kts 304°
2026-05-07 23:36 55.86422 32.90922 34873 ft 459 kts 303°
2026-05-07 23:37 55.88416 32.86486 35142 ft 457 kts 301°
2026-05-07 23:37 55.90354 32.82007 35353 ft 456 kts 301°
2026-05-07 23:37 55.92252 32.77562 35611 ft 456 kts 301°
2026-05-07 23:37 55.94171 32.73067 35869 ft 455 kts 301°
2026-05-07 23:38 55.96097 32.68575 35972 ft 458 kts 301°
2026-05-07 23:38 55.98043 32.64049 35980 ft 461 kts 301°
2026-05-07 23:38 56.01969 32.54963 35987 ft 461 kts 301°
2026-05-07 23:39 56.05882 32.45913 35992 ft 460 kts 301°
2026-05-07 23:39 56.09789 32.36837 35994 ft 460 kts 301°
2026-05-07 23:40 56.13681 32.27756 36002 ft 460 kts 301°
2026-05-07 23:40 56.17568 32.18648 36003 ft 459 kts 301°
2026-05-07 23:41 56.21446 32.09530 36012 ft 459 kts 300°
2026-05-07 23:41 56.25288 32.00460 36018 ft 459 kts 300°
2026-05-07 23:42 56.29173 31.91254 36021 ft 458 kts 300°
2026-05-07 23:42 56.32994 31.82164 36027 ft 458 kts 300°
2026-05-07 23:43 56.36834 31.72999 36025 ft 458 kts 300°
2026-05-07 23:43 56.40661 31.63830 36033 ft 457 kts 300°
2026-05-07 23:44 56.44481 31.54645 36044 ft 457 kts 300°
2026-05-07 23:44 56.48292 31.45446 36035 ft 457 kts 300°
2026-05-07 23:45 56.52093 31.36239 36047 ft 457 kts 299°
2026-05-07 23:45 56.55893 31.26998 36045 ft 457 kts 299°
2026-05-07 23:46 56.59679 31.17755 36050 ft 457 kts 299°
2026-05-07 23:46 56.63438 31.08546 36050 ft 456 kts 299°
2026-05-07 23:47 56.67219 30.99278 36055 ft 457 kts 299°
2026-05-07 23:47 56.70996 30.89991 36060 ft 457 kts 299°
2026-05-07 23:48 56.74768 30.80679 36063 ft 456 kts 298°
2026-05-07 23:48 56.77840 30.70774 36066 ft 443 kts 284°
2026-05-07 23:49 56.79223 30.60030 36046 ft 433 kts 270°
2026-05-07 23:49 56.79588 30.49055 36062 ft 433 kts 267°
2026-05-07 23:50 56.79794 30.38065 36065 ft 434 kts 267°
2026-05-07 23:50 56.80000 30.27066 36068 ft 434 kts 267°
2026-05-07 23:51 56.80225 30.16053 36066 ft 434 kts 267°
2026-05-07 23:51 56.80450 30.05112 36068 ft 434 kts 267°
2026-05-07 23:52 56.80669 29.94111 36070 ft 434 kts 267°
2026-05-07 23:52 56.80876 29.83103 36074 ft 434 kts 266°
2026-05-07 23:53 56.81073 29.72087 36073 ft 434 kts 266°
2026-05-07 23:53 56.81261 29.61076 36077 ft 434 kts 266°
2026-05-07 23:54 56.81439 29.50040 36077 ft 434 kts 266°
2026-05-07 23:54 56.81608 29.39019 36074 ft 435 kts 266°
2026-05-07 23:55 56.81766 29.27988 36076 ft 435 kts 266°
2026-05-07 23:55 56.81914 29.16956 36075 ft 435 kts 266°
2026-05-07 23:56 56.82053 29.05917 36075 ft 435 kts 266°
2026-05-07 23:56 56.82182 28.94871 36071 ft 435 kts 266°
2026-05-07 23:57 56.82302 28.83822 36084 ft 435 kts 266°
2026-05-07 23:57 56.82412 28.72784 36087 ft 435 kts 266°
2026-05-07 23:58 56.82512 28.61739 36086 ft 435 kts 266°
2026-05-07 23:58 56.82603 28.50691 36082 ft 435 kts 266°
2026-05-07 23:59 56.82684 28.39653 36088 ft 435 kts 265°
2026-05-07 23:59 56.82756 28.28606 36092 ft 435 kts 265°
2026-05-08 00:00 56.82817 28.17557 36100 ft 435 kts 265°
2026-05-08 00:00 56.82868 28.06571 36110 ft 435 kts 265°
2026-05-08 00:01 56.82909 27.95517 36129 ft 435 kts 265°
2026-05-08 00:01 56.82941 27.84461 36118 ft 435 kts 265°
2026-05-08 00:02 56.82963 27.73404 36118 ft 435 kts 265°
2026-05-08 00:02 56.82975 27.62341 36120 ft 435 kts 265°
2026-05-08 00:03 56.82977 27.51282 36123 ft 436 kts 265°
2026-05-08 00:03 56.82969 27.40214 36129 ft 437 kts 265°
2026-05-08 00:04 56.82953 27.29109 36133 ft 437 kts 265°
2026-05-08 00:04 56.82926 27.18003 36133 ft 437 kts 265°
2026-05-08 00:05 56.82890 27.06898 36121 ft 438 kts 264°
2026-05-08 00:05 56.82844 26.95772 36123 ft 438 kts 264°
2026-05-08 00:06 56.82787 26.84708 36125 ft 438 kts 264°
2026-05-08 00:06 56.82721 26.73570 36124 ft 439 kts 264°
2026-05-08 00:07 56.82645 26.62412 36126 ft 439 kts 264°
2026-05-08 00:07 56.82558 26.51254 36129 ft 440 kts 264°
2026-05-08 00:08 56.82462 26.40082 36130 ft 440 kts 264°
2026-05-08 00:08 56.82355 26.28915 36130 ft 440 kts 264°
2026-05-08 00:09 56.82238 26.17708 36129 ft 441 kts 264°
2026-05-08 00:09 56.82111 26.06574 36132 ft 441 kts 264°
2026-05-08 00:10 56.81974 25.95380 36136 ft 441 kts 264°
2026-05-08 00:10 56.81828 25.84161 36135 ft 442 kts 264°
2026-05-08 00:11 56.81671 25.72959 36140 ft 442 kts 264°
2026-05-08 00:11 56.81504 25.61744 36138 ft 442 kts 264°
2026-05-08 00:12 56.81357 25.52410 36140 ft 442 kts 264°
2026-05-08 00:12 56.81171 25.41187 36145 ft 443 kts 263°
2026-05-08 00:13 56.80974 25.29946 36147 ft 443 kts 263°
2026-05-08 00:13 56.80767 25.18708 36150 ft 443 kts 263°
2026-05-08 00:14 56.80550 25.07447 36155 ft 444 kts 263°
2026-05-08 00:14 56.80324 24.96189 36158 ft 444 kts 263°
2026-05-08 00:15 56.80088 24.84998 36158 ft 445 kts 263°
2026-05-08 00:15 56.79839 24.73649 36157 ft 445 kts 263°
2026-05-08 00:16 56.79581 24.62353 36155 ft 445 kts 263°
2026-05-08 00:16 56.79443 24.56493 36153 ft 446 kts 263°
2026-05-08 00:17 56.79171 24.45176 36146 ft 446 kts 263°
2026-05-08 00:17 56.78890 24.33847 36149 ft 447 kts 263°
2026-05-08 00:18 56.78595 24.22500 36153 ft 448 kts 263°
2026-05-08 00:18 56.78287 24.11151 36153 ft 448 kts 263°
2026-05-08 00:19 56.77967 23.99787 36153 ft 449 kts 263°
2026-05-08 00:19 56.77638 23.88399 36155 ft 450 kts 263°
2026-05-08 00:20 56.77299 23.77006 36154 ft 450 kts 263°
2026-05-08 00:20 56.76949 23.65599 36155 ft 451 kts 263°
2026-05-08 00:21 56.76591 23.54254 36157 ft 451 kts 263°
2026-05-08 00:21 56.76219 23.42822 36157 ft 452 kts 263°
2026-05-08 00:22 56.75837 23.31382 36154 ft 453 kts 263°
2026-05-08 00:22 56.75444 23.19920 36165 ft 453 kts 263°
2026-05-08 00:23 56.75040 23.08463 36164 ft 454 kts 263°
2026-05-08 00:23 56.74625 22.96981 36167 ft 454 kts 263°
2026-05-08 00:24 56.74198 22.85484 36168 ft 455 kts 262°
2026-05-08 00:24 56.73762 22.74002 36168 ft 455 kts 263°
2026-05-08 00:25 56.73313 22.62489 36174 ft 456 kts 262°
2026-05-08 00:25 56.72852 22.50960 36175 ft 456 kts 262°
2026-05-08 00:26 56.72385 22.39507 36175 ft 457 kts 262°
2026-05-08 00:26 56.71904 22.27975 36178 ft 457 kts 262°
2026-05-08 00:27 56.71413 22.16433 36178 ft 458 kts 262°
2026-05-08 00:27 56.70909 22.04885 36181 ft 458 kts 262°
2026-05-08 00:28 56.70393 21.93315 36184 ft 458 kts 262°
2026-05-08 00:28 56.69867 21.81760 36181 ft 459 kts 262°
2026-05-08 00:29 56.69330 21.70191 36187 ft 459 kts 262°
2026-05-08 00:29 56.68782 21.58606 36183 ft 460 kts 262°
2026-05-08 00:30 56.68221 21.47013 36184 ft 460 kts 262°
2026-05-08 00:30 56.67650 21.35409 36188 ft 461 kts 262°
2026-05-08 00:31 56.67068 21.23800 36185 ft 461 kts 262°
2026-05-08 00:31 56.66477 21.12245 36187 ft 461 kts 261°
2026-05-08 00:32 56.65871 21.00619 36188 ft 462 kts 261°
2026-05-08 00:32 56.65254 20.88984 36190 ft 463 kts 261°
2026-05-08 00:33 56.64626 20.77338 36190 ft 464 kts 261°
2026-05-08 00:33 56.63984 20.65651 36196 ft 465 kts 261°
2026-05-08 00:34 56.63332 20.53961 36199 ft 465 kts 261°
2026-05-08 00:34 56.62666 20.42248 36200 ft 466 kts 261°
2026-05-08 00:35 56.61994 20.30612 36202 ft 467 kts 261°
2026-05-08 00:35 56.61303 20.18872 36205 ft 468 kts 261°
2026-05-08 00:36 56.60600 20.07099 36203 ft 469 kts 261°
2026-05-08 00:36 56.59886 19.95322 36203 ft 470 kts 261°
2026-05-08 00:37 56.59158 19.83516 36206 ft 471 kts 261°
2026-05-08 00:38 56.58041 19.65759 36209 ft 473 kts 260°
2026-05-08 00:38 56.57281 19.53904 36208 ft 474 kts 260°
2026-05-08 00:39 56.56507 19.42014 36211 ft 475 kts 260°
2026-05-08 00:39 56.55721 19.30116 36215 ft 476 kts 260°
2026-05-08 00:40 56.54922 19.18206 36212 ft 477 kts 260°
2026-05-08 00:40 56.54111 19.06276 36214 ft 477 kts 260°
2026-05-08 00:41 56.53287 18.94329 36215 ft 478 kts 260°
2026-05-08 00:41 56.52875 18.82373 36220 ft 480 kts 266°
2026-05-08 00:42 56.52879 18.70200 36218 ft 480 kts 268°
2026-05-08 00:42 56.52939 18.58119 36223 ft 480 kts 268°
2026-05-08 00:43 56.52989 18.46099 36224 ft 480 kts 268°
2026-05-08 00:43 56.53016 18.33980 36221 ft 481 kts 268°
2026-05-08 00:44 56.53026 18.21862 36221 ft 481 kts 267°
2026-05-08 00:44 56.53023 18.09723 36225 ft 482 kts 267°
2026-05-08 00:45 56.53010 17.97555 36223 ft 483 kts 267°
2026-05-08 00:45 56.52984 17.85381 36221 ft 484 kts 267°
2026-05-08 00:46 56.52947 17.73159 36224 ft 485 kts 267°
2026-05-08 00:46 56.52898 17.60923 36231 ft 486 kts 267°
2026-05-08 00:47 56.52838 17.48657 36228 ft 487 kts 267°
2026-05-08 00:47 56.52764 17.36383 36229 ft 487 kts 267°
2026-05-08 00:48 56.52678 17.24193 36227 ft 488 kts 267°
2026-05-08 00:48 56.52580 17.11880 36229 ft 489 kts 267°
2026-05-08 00:49 56.52469 16.99569 36230 ft 489 kts 267°
2026-05-08 00:49 56.52346 16.87223 36230 ft 490 kts 266°
2026-05-08 00:50 56.52210 16.74879 36233 ft 490 kts 266°
2026-05-08 00:50 56.52060 16.62522 36233 ft 490 kts 266°
2026-05-08 00:51 56.51900 16.50175 36233 ft 491 kts 266°
2026-05-08 00:51 56.51730 16.37889 36235 ft 491 kts 266°
2026-05-08 00:52 56.51546 16.25533 36236 ft 491 kts 266°
2026-05-08 00:52 56.51349 16.13171 36237 ft 491 kts 266°
2026-05-08 00:53 56.51140 16.00799 36234 ft 491 kts 266°
2026-05-08 00:53 56.50920 15.88444 36236 ft 491 kts 266°
2026-05-08 00:54 56.50687 15.76080 36233 ft 491 kts 266°
2026-05-08 00:54 56.50441 15.63725 36228 ft 491 kts 266°
2026-05-08 00:55 56.50183 15.51371 36223 ft 491 kts 265°
2026-05-08 00:55 56.49915 15.39094 36220 ft 491 kts 265°
2026-05-08 00:56 56.49633 15.26744 36217 ft 491 kts 265°
2026-05-08 00:56 56.49338 15.14382 36219 ft 491 kts 265°
2026-05-08 00:57 56.49030 15.02014 36219 ft 491 kts 265°
2026-05-08 00:57 56.48712 14.89667 36216 ft 491 kts 265°
2026-05-08 00:58 56.48380 14.77325 36220 ft 491 kts 265°
2026-05-08 00:58 56.48036 14.64969 36219 ft 491 kts 265°
2026-05-08 00:59 56.47680 14.52632 36213 ft 491 kts 265°
2026-05-08 00:59 56.47375 14.42369 36205 ft 491 kts 265°
2026-05-08 01:00 56.46934 14.28021 36206 ft 491 kts 264°
2026-05-08 01:00 56.46542 14.15696 36222 ft 491 kts 264°
2026-05-08 01:01 56.46204 14.05350 36208 ft 491 kts 264°
2026-05-08 01:01 56.45789 13.93020 36217 ft 491 kts 264°
2026-05-08 01:02 56.45291 13.78687 36221 ft 491 kts 264°
2026-05-08 01:02 56.44922 13.68369 36218 ft 491 kts 264°
2026-05-08 01:03 56.44474 13.56134 36215 ft 491 kts 264°
2026-05-08 01:03 56.44010 13.43821 36207 ft 491 kts 264°
2026-05-08 01:04 56.43533 13.31510 36213 ft 491 kts 264°
2026-05-08 01:04 56.43046 13.19201 36207 ft 491 kts 264°
2026-05-08 01:05 56.42546 13.06913 36212 ft 491 kts 263°
2026-05-08 01:05 56.42035 12.94621 36206 ft 490 kts 263°
2026-05-08 01:06 56.41512 12.82347 36214 ft 490 kts 263°
2026-05-08 01:06 56.40975 12.70052 36215 ft 490 kts 263°
2026-05-08 01:07 56.40431 12.57856 36214 ft 490 kts 263°
2026-05-08 01:07 56.39871 12.45571 36204 ft 490 kts 263°
2026-05-08 01:08 56.39300 12.33312 36202 ft 490 kts 263°
2026-05-08 01:08 56.38894 12.21030 36218 ft 491 kts 267°
2026-05-08 01:09 56.38932 12.08706 36212 ft 490 kts 268°
2026-05-08 01:09 56.39036 11.96398 36206 ft 490 kts 268°
2026-05-08 01:10 56.39136 11.84096 36209 ft 490 kts 268°
2026-05-08 01:10 56.39217 11.71787 36208 ft 490 kts 268°
2026-05-08 01:11 56.39279 11.59573 36208 ft 490 kts 268°
2026-05-08 01:11 56.39328 11.47283 36197 ft 490 kts 268°
2026-05-08 01:12 56.39365 11.34996 36202 ft 489 kts 268°
2026-05-08 01:12 56.39390 11.22707 36205 ft 489 kts 268°
2026-05-08 01:13 56.39403 11.10422 36204 ft 489 kts 267°
2026-05-08 01:13 56.39402 10.98144 36200 ft 489 kts 267°
2026-05-08 01:14 56.39389 10.85864 36213 ft 489 kts 267°
2026-05-08 01:14 56.39366 10.73577 36213 ft 489 kts 267°
2026-05-08 01:15 56.39331 10.61392 36207 ft 489 kts 267°
2026-05-08 01:15 56.39285 10.49048 36206 ft 489 kts 267°
2026-05-08 01:16 56.39226 10.36875 36208 ft 488 kts 266°
2026-05-08 01:16 56.39154 10.24616 36200 ft 488 kts 266°
2026-05-08 01:17 56.39071 10.12366 36198 ft 488 kts 266°
2026-05-08 01:17 56.38976 10.00124 36198 ft 488 kts 266°
2026-05-08 01:18 56.38868 9.87881 36192 ft 488 kts 266°
2026-05-08 01:18 56.38749 9.75639 36195 ft 487 kts 266°
2026-05-08 01:19 56.38618 9.63411 36191 ft 487 kts 266°
2026-05-08 01:19 56.38475 9.51198 36194 ft 487 kts 265°
2026-05-08 01:20 56.38320 9.38966 36182 ft 487 kts 265°
2026-05-08 01:20 56.38152 9.26763 36189 ft 487 kts 265°
2026-05-08 01:21 56.37974 9.14630 36187 ft 487 kts 265°
2026-05-08 01:21 56.37783 9.02434 36187 ft 486 kts 265°
2026-05-08 01:22 56.37581 8.90241 36187 ft 486 kts 265°
2026-05-08 01:22 56.37365 8.78035 36187 ft 486 kts 265°
2026-05-08 01:23 56.37139 8.65861 36189 ft 486 kts 265°
2026-05-08 01:23 56.36899 8.53661 36191 ft 486 kts 264°
2026-05-08 01:24 56.36649 8.41474 36188 ft 486 kts 264°
2026-05-08 01:24 56.36387 8.29296 36192 ft 486 kts 264°
2026-05-08 01:25 56.36113 8.17130 36189 ft 486 kts 264°
2026-05-08 01:25 56.35828 8.04944 36190 ft 486 kts 264°
2026-05-08 01:26 56.35530 7.92763 36188 ft 486 kts 264°
2026-05-08 01:26 56.35221 7.80598 36187 ft 486 kts 264°
2026-05-08 01:27 56.34899 7.68414 36188 ft 486 kts 264°
2026-05-08 01:27 56.34568 7.56322 36186 ft 486 kts 263°
2026-05-08 01:28 56.34222 7.44139 36186 ft 486 kts 263°
2026-05-08 01:28 56.33864 7.31965 36188 ft 486 kts 263°
2026-05-08 01:29 56.33495 7.19805 36187 ft 486 kts 263°
2026-05-08 01:29 56.33113 7.07654 36186 ft 486 kts 263°
2026-05-08 01:30 56.32720 6.95490 36184 ft 486 kts 263°
2026-05-08 01:30 56.32314 6.83330 36186 ft 486 kts 263°
2026-05-08 01:31 56.31896 6.71183 36184 ft 486 kts 262°
2026-05-08 01:31 56.31467 6.59033 36186 ft 486 kts 262°
2026-05-08 01:32 56.31029 6.46974 36178 ft 486 kts 262°
2026-05-08 01:32 56.30576 6.34836 36186 ft 486 kts 262°
2026-05-08 01:33 56.30111 6.22699 36185 ft 486 kts 262°
2026-05-08 01:33 56.29634 6.10568 36174 ft 486 kts 262°
2026-05-08 01:34 56.29146 5.98441 36178 ft 486 kts 262°
2026-05-08 01:34 56.28646 5.86298 36179 ft 486 kts 261°
2026-05-08 01:35 56.28134 5.74171 36169 ft 486 kts 261°
2026-05-08 01:35 56.27609 5.62035 36179 ft 486 kts 261°
2026-05-08 01:36 56.27073 5.49913 36167 ft 486 kts 261°
2026-05-08 01:36 56.26525 5.37784 36171 ft 486 kts 261°
2026-05-08 01:37 56.25965 5.25663 36170 ft 486 kts 261°
2026-05-08 01:37 56.25393 5.13541 36168 ft 486 kts 261°
2026-05-08 01:38 56.24810 5.01437 36171 ft 486 kts 261°
2026-05-08 01:38 56.24239 4.89335 36168 ft 486 kts 261°
2026-05-08 01:39 56.23694 4.77290 36165 ft 486 kts 261°
2026-05-08 01:39 56.23135 4.65185 36159 ft 486 kts 260°
2026-05-08 01:40 56.22559 4.53095 36160 ft 485 kts 260°
2026-05-08 01:40 56.21969 4.41014 36157 ft 485 kts 260°
2026-05-08 01:41 56.21366 4.28935 36158 ft 485 kts 260°
2026-05-08 01:41 56.20750 4.16840 36154 ft 485 kts 260°
2026-05-08 01:42 56.20124 4.04770 36156 ft 485 kts 259°
2026-05-08 01:42 56.19490 3.92787 36147 ft 485 kts 259°
2026-05-08 01:43 56.18841 3.80741 36137 ft 485 kts 259°
2026-05-08 01:43 56.18181 3.68701 36127 ft 485 kts 259°
2026-05-08 01:44 56.17514 3.56652 36111 ft 485 kts 260°
2026-05-08 01:44 56.17805 3.44463 36122 ft 494 kts 274°
2026-05-08 01:45 56.19013 3.32342 36110 ft 493 kts 276°
2026-05-08 01:45 56.20364 3.20274 36120 ft 493 kts 276°
2026-05-08 01:46 56.21707 3.08199 36125 ft 493 kts 276°
2026-05-08 01:46 56.23016 2.96122 36123 ft 492 kts 276°
2026-05-08 01:47 56.24300 2.84046 36117 ft 492 kts 275°
2026-05-08 01:47 56.25570 2.71949 36115 ft 492 kts 275°
2026-05-08 01:48 56.27245 2.55850 36108 ft 492 kts 275°
2026-05-08 01:48 56.28487 2.43764 36107 ft 491 kts 275°
2026-05-08 01:49 56.29719 2.31663 36103 ft 491 kts 275°
2026-05-08 01:49 56.30939 2.19562 36104 ft 491 kts 275°
2026-05-08 01:50 56.32145 2.07464 36103 ft 491 kts 275°
2026-05-08 01:50 56.33340 1.95353 36102 ft 490 kts 274°
2026-05-08 01:51 56.34521 1.83251 36101 ft 490 kts 274°
2026-05-08 01:51 56.35683 1.71218 36099 ft 489 kts 274°
2026-05-08 01:52 56.36847 1.59040 36097 ft 489 kts 274°
2026-05-08 01:52 56.37983 1.47029 36090 ft 489 kts 274°
2026-05-08 01:53 56.39121 1.34865 36088 ft 488 kts 274°
2026-05-08 01:53 56.40231 1.22857 36083 ft 488 kts 274°
2026-05-08 01:54 56.41335 1.10773 36076 ft 487 kts 274°
2026-05-08 01:54 56.42426 0.98706 36070 ft 486 kts 274°
2026-05-08 01:55 56.43504 0.86638 36068 ft 486 kts 273°
2026-05-08 01:55 56.44569 0.74580 36064 ft 485 kts 273°
2026-05-08 01:56 56.45620 0.62542 36055 ft 485 kts 273°
2026-05-08 01:56 56.46655 0.50553 36054 ft 484 kts 273°
2026-05-08 01:57 56.47683 0.38517 36053 ft 484 kts 273°
2026-05-08 01:57 56.48697 0.26489 36042 ft 483 kts 273°
2026-05-08 01:58 56.49698 0.14469 36042 ft 482 kts 273°
2026-05-08 01:58 56.50686 0.02461 36037 ft 481 kts 273°
2026-05-08 01:59 56.51660 -0.09524 36034 ft 481 kts 273°
2026-05-08 01:59 56.52622 -0.21505 36034 ft 480 kts 273°
2026-05-08 02:00 56.53571 -0.33477 36020 ft 480 kts 272°
2026-05-08 02:00 56.54508 -0.45445 36031 ft 479 kts 272°
2026-05-08 02:01 56.55425 -0.57310 36010 ft 478 kts 272°
2026-05-08 02:01 56.56343 -0.69333 36019 ft 478 kts 272°
2026-05-08 02:02 56.57235 -0.81183 36007 ft 477 kts 272°
2026-05-08 02:02 56.58121 -0.93114 36005 ft 476 kts 272°
2026-05-08 02:03 56.58995 -1.05024 35995 ft 476 kts 272°
2026-05-08 02:03 56.59854 -1.16919 35995 ft 475 kts 272°
2026-05-08 02:04 56.60703 -1.28810 35990 ft 474 kts 272°
2026-05-08 02:04 56.61538 -1.40679 35987 ft 474 kts 271°
2026-05-08 02:05 56.62356 -1.52472 35986 ft 474 kts 271°
2026-05-08 02:05 56.63167 -1.64339 35982 ft 473 kts 271°
2026-05-08 02:06 56.63967 -1.76203 35978 ft 473 kts 271°
2026-05-08 02:06 56.64756 -1.88073 35974 ft 473 kts 271°
2026-05-08 02:07 56.65569 -1.99925 35962 ft 474 kts 274°
2026-05-08 02:07 56.66980 -2.11683 35968 ft 476 kts 277°
2026-05-08 02:08 56.68520 -2.23390 35966 ft 475 kts 277°
2026-05-08 02:08 56.70069 -2.35056 35958 ft 474 kts 277°
2026-05-08 02:09 56.71602 -2.46736 35952 ft 473 kts 277°
2026-05-08 02:09 56.73104 -2.58320 35958 ft 473 kts 277°
2026-05-08 02:10 56.74599 -2.69964 35950 ft 472 kts 277°
2026-05-08 02:10 56.76083 -2.81625 35950 ft 472 kts 277°
2026-05-08 02:11 56.77556 -2.93271 35945 ft 471 kts 277°
2026-05-08 02:11 56.79018 -3.04937 35947 ft 471 kts 277°
2026-05-08 02:12 56.80467 -3.16584 35943 ft 471 kts 277°
2026-05-08 02:12 56.81904 -3.28239 35948 ft 471 kts 277°
2026-05-08 02:13 56.83332 -3.39904 35946 ft 470 kts 276°
2026-05-08 02:13 56.84747 -3.51566 35938 ft 470 kts 276°
2026-05-08 02:14 56.86150 -3.63233 35938 ft 470 kts 276°
2026-05-08 02:14 56.87544 -3.74918 35937 ft 470 kts 276°
2026-05-08 02:15 56.88924 -3.86604 35928 ft 470 kts 276°
2026-05-08 02:15 56.90297 -3.98315 35933 ft 470 kts 276°
2026-05-08 02:16 56.91656 -4.10019 35933 ft 470 kts 276°
2026-05-08 02:16 56.93004 -4.21732 35933 ft 470 kts 276°
2026-05-08 02:17 56.94344 -4.33463 35932 ft 470 kts 276°
2026-05-08 02:17 56.95672 -4.45207 35932 ft 471 kts 275°
2026-05-08 02:18 56.96980 -4.56877 35926 ft 471 kts 275°
2026-05-08 02:18 56.98287 -4.68650 35929 ft 471 kts 275°
2026-05-08 02:19 56.99583 -4.80429 35927 ft 471 kts 275°
2026-05-08 02:19 57.00869 -4.92224 35926 ft 471 kts 275°
2026-05-08 02:20 57.02145 -5.04027 35926 ft 471 kts 275°
2026-05-08 02:20 57.03410 -5.15846 35925 ft 472 kts 275°
2026-05-08 02:21 57.04740 -5.27668 35916 ft 475 kts 279°
2026-05-08 02:21 57.06980 -5.39100 35931 ft 480 kts 285°
2026-05-08 02:22 57.09517 -5.50537 35923 ft 480 kts 286°
2026-05-08 02:22 57.12053 -5.61793 35912 ft 480 kts 285°
2026-05-08 02:23 57.14590 -5.73168 35917 ft 480 kts 285°
2026-05-08 02:23 57.17105 -5.84550 35917 ft 480 kts 285°
2026-05-08 02:24 57.19605 -5.95949 35897 ft 480 kts 285°
2026-05-08 02:24 57.22099 -6.07388 35901 ft 479 kts 285°
2026-05-08 02:25 57.24575 -6.18819 35896 ft 479 kts 285°
2026-05-08 02:25 57.27046 -6.30267 35891 ft 479 kts 285°
2026-05-08 02:26 57.29487 -6.41644 35893 ft 479 kts 285°
2026-05-08 02:26 57.31931 -6.53096 35886 ft 479 kts 285°
2026-05-08 02:27 57.34365 -6.64568 35879 ft 479 kts 285°
2026-05-08 02:27 57.36787 -6.76049 35874 ft 478 kts 285°
2026-05-08 02:28 57.39197 -6.87537 35867 ft 478 kts 285°
2026-05-08 02:28 57.41595 -6.99033 35861 ft 478 kts 285°
2026-05-08 02:29 57.43979 -7.10542 35858 ft 478 kts 285°
2026-05-08 02:29 57.46354 -7.22069 35858 ft 477 kts 285°
2026-05-08 02:30 57.48701 -7.33524 35860 ft 477 kts 285°
2026-05-08 02:30 57.51052 -7.45053 35860 ft 477 kts 284°
2026-05-08 02:31 57.53394 -7.56602 35858 ft 477 kts 284°
2026-05-08 02:31 57.55727 -7.68171 35853 ft 477 kts 284°
2026-05-08 02:32 57.58049 -7.79757 35834 ft 477 kts 284°
2026-05-08 02:32 57.60362 -7.91365 35838 ft 478 kts 284°
2026-05-08 02:33 57.62664 -8.02985 35832 ft 478 kts 284°
2026-05-08 02:33 57.64956 -8.14626 35826 ft 478 kts 284°
2026-05-08 02:34 57.67239 -8.26296 35821 ft 478 kts 284°
2026-05-08 02:34 57.69512 -8.37988 35819 ft 478 kts 284°
2026-05-08 02:35 57.71392 -8.47705 35821 ft 478 kts 284°
2026-05-08 02:35 57.73646 -8.59420 35819 ft 479 kts 284°
2026-05-08 02:36 57.75888 -8.71149 35819 ft 479 kts 284°
2026-05-08 02:36 57.78120 -8.82898 35816 ft 479 kts 284°
2026-05-08 02:37 57.80345 -8.94679 35818 ft 479 kts 284°
2026-05-08 02:37 57.82556 -9.06457 35818 ft 479 kts 284°
2026-05-08 02:38 57.84755 -9.18251 35820 ft 479 kts 284°
2026-05-08 02:38 57.86930 -9.29998 35822 ft 479 kts 284°
2026-05-08 02:39 57.89108 -9.41822 35821 ft 479 kts 284°
2026-05-08 02:39 57.91275 -9.53648 35822 ft 478 kts 284°
2026-05-08 02:40 57.93429 -9.65475 35825 ft 478 kts 283°
2026-05-08 02:40 57.95570 -9.77312 35831 ft 477 kts 283°
2026-05-08 02:41 57.97698 -9.89150 35830 ft 477 kts 283°
2026-05-08 02:41 57.99940 -10.00922 35833 ft 480 kts 288°
2026-05-08 02:42 58.02714 -10.12391 35838 ft 480 kts 290°
2026-05-08 02:42 58.05561 -10.23778 35842 ft 479 kts 290°
2026-05-08 02:43 58.08406 -10.35156 35846 ft 479 kts 290°
2026-05-08 02:43 58.11240 -10.46561 35850 ft 479 kts 289°
2026-05-08 02:44 58.14052 -10.57968 35850 ft 478 kts 289°
2026-05-08 02:44 58.16840 -10.69335 35858 ft 478 kts 289°
2026-05-08 02:45 58.19627 -10.80772 35863 ft 478 kts 289°
2026-05-08 02:45 58.22409 -10.92229 35862 ft 478 kts 289°
2026-05-08 02:46 58.25182 -11.03707 35863 ft 478 kts 289°
2026-05-08 02:46 58.27935 -11.15187 35871 ft 478 kts 289°
2026-05-08 02:47 58.30681 -11.26683 35877 ft 478 kts 289°
2026-05-08 02:47 58.33421 -11.38227 35883 ft 478 kts 289°
2026-05-08 02:48 58.36145 -11.49752 35894 ft 478 kts 289°
2026-05-08 02:48 58.38856 -11.61303 35899 ft 478 kts 289°
2026-05-08 02:49 58.41546 -11.72819 35896 ft 478 kts 289°
2026-05-08 02:49 58.44240 -11.84396 35902 ft 477 kts 289°
2026-05-08 02:50 58.46925 -11.96001 35903 ft 477 kts 289°
2026-05-08 02:50 58.49596 -12.07605 35906 ft 477 kts 289°
2026-05-08 02:51 58.52255 -12.19229 35909 ft 477 kts 289°
2026-05-08 02:51 58.54905 -12.30880 35916 ft 477 kts 289°
2026-05-08 02:52 58.57545 -12.42557 35922 ft 477 kts 289°
2026-05-08 02:52 58.60173 -12.54242 35923 ft 477 kts 289°
2026-05-08 02:53 58.62789 -12.65934 35928 ft 477 kts 289°
2026-05-08 02:53 58.65395 -12.77657 35937 ft 477 kts 289°
2026-05-08 02:54 58.67982 -12.89362 35942 ft 477 kts 289°
2026-05-08 02:54 58.70573 -13.01111 35943 ft 477 kts 289°
2026-05-08 02:55 58.74411 -13.18695 35953 ft 477 kts 288°
2026-05-08 02:56 58.76967 -13.30491 35961 ft 478 kts 289°
2026-05-08 02:56 58.79525 -13.42325 35966 ft 478 kts 289°
2026-05-08 02:57 58.82072 -13.54191 35967 ft 478 kts 289°
2026-05-08 02:57 58.84600 -13.66061 35975 ft 479 kts 289°
2026-05-08 02:58 58.87128 -13.77990 35979 ft 479 kts 289°
2026-05-08 02:58 58.89641 -13.89920 35982 ft 479 kts 289°
2026-05-08 02:59 58.92131 -14.01796 35989 ft 479 kts 288°
2026-05-08 02:59 58.94627 -14.13776 35997 ft 479 kts 289°
2026-05-08 03:00 58.97113 -14.25777 36001 ft 480 kts 289°
2026-05-08 03:00 58.99590 -14.37804 36004 ft 480 kts 288°
2026-05-08 03:01 59.02054 -14.49845 36010 ft 480 kts 288°
2026-05-08 03:01 59.04507 -14.61907 36014 ft 480 kts 289°
2026-05-08 03:02 59.06940 -14.73933 36022 ft 480 kts 289°
2026-05-08 03:02 59.09371 -14.86030 36029 ft 480 kts 288°
2026-05-08 03:03 59.11791 -14.98136 36035 ft 480 kts 288°
2026-05-08 03:03 59.14199 -15.10261 36039 ft 480 kts 288°
2026-05-08 03:04 59.16593 -15.22403 36044 ft 480 kts 288°
2026-05-08 03:04 59.18983 -15.34592 36046 ft 481 kts 288°
2026-05-08 03:05 59.21363 -15.46797 36056 ft 481 kts 289°
2026-05-08 03:05 59.23731 -15.59015 36055 ft 481 kts 289°
2026-05-08 03:06 59.26088 -15.71259 36063 ft 481 kts 289°
2026-05-08 03:06 59.28435 -15.83525 36069 ft 481 kts 289°
2026-05-08 03:07 59.30770 -15.95808 36072 ft 482 kts 289°
2026-05-08 03:07 59.33076 -16.08016 36076 ft 481 kts 289°
2026-05-08 03:08 59.35391 -16.20341 36083 ft 482 kts 289°
2026-05-08 03:08 59.37699 -16.32714 36084 ft 483 kts 289°
2026-05-08 03:09 59.39991 -16.45081 36094 ft 483 kts 289°
2026-05-08 03:09 59.42273 -16.57485 36099 ft 483 kts 289°
2026-05-08 03:10 59.44546 -16.69906 36102 ft 483 kts 289°
2026-05-08 03:10 59.46806 -16.82341 36102 ft 483 kts 289°
2026-05-08 03:11 59.49038 -16.94707 36106 ft 482 kts 289°
2026-05-08 03:11 59.51273 -17.07169 36110 ft 482 kts 289°
2026-05-08 03:12 59.53497 -17.19644 36116 ft 482 kts 289°
2026-05-08 03:12 59.55707 -17.32128 36121 ft 482 kts 289°
2026-05-08 03:13 59.57904 -17.44628 36123 ft 482 kts 289°
2026-05-08 03:13 59.60091 -17.57133 36130 ft 482 kts 289°
2026-05-08 03:14 59.62271 -17.69679 36129 ft 483 kts 288°
2026-05-08 03:14 59.64432 -17.82234 36134 ft 483 kts 289°
2026-05-08 03:15 59.66587 -17.94839 36142 ft 483 kts 289°
2026-05-08 03:15 59.68719 -18.07379 36147 ft 484 kts 289°
2026-05-08 03:16 59.70851 -18.20019 36148 ft 484 kts 288°
2026-05-08 03:16 59.72973 -18.32684 36151 ft 484 kts 288°
2026-05-08 03:17 59.75086 -18.45386 36151 ft 485 kts 288°
2026-05-08 03:17 59.77188 -18.58109 36159 ft 485 kts 288°
2026-05-08 03:18 59.79277 -18.70837 36162 ft 485 kts 288°
2026-05-08 03:18 59.81344 -18.83527 36161 ft 486 kts 288°
2026-05-08 03:19 59.83413 -18.96319 36165 ft 486 kts 288°
2026-05-08 03:19 59.85469 -19.09127 36167 ft 486 kts 288°
2026-05-08 03:20 59.87514 -19.21956 36166 ft 486 kts 288°
2026-05-08 03:20 59.89545 -19.34799 36177 ft 486 kts 288°
2026-05-08 03:21 59.91562 -19.47644 36178 ft 486 kts 288°
2026-05-08 03:21 59.93569 -19.60512 36179 ft 486 kts 288°
2026-05-08 03:22 59.95561 -19.73395 36183 ft 486 kts 288°
2026-05-08 03:22 59.97543 -19.86301 36179 ft 486 kts 288°
2026-05-08 03:23 59.99509 -19.99197 36183 ft 486 kts 288°
2026-05-08 03:23 60.01398 -20.12067 36190 ft 486 kts 286°
2026-05-08 03:24 60.02901 -20.22976 36190 ft 486 kts 286°
2026-05-08 03:24 60.04970 -20.38117 36194 ft 485 kts 286°
2026-05-08 03:25 60.06467 -20.49046 36192 ft 485 kts 286°
2026-05-08 03:25 60.08237 -20.61998 36194 ft 485 kts 286°
2026-05-08 03:26 60.10007 -20.75042 36200 ft 485 kts 286°
2026-05-08 03:26 60.11764 -20.88100 36198 ft 485 kts 286°
2026-05-08 03:27 60.13507 -21.01174 36203 ft 485 kts 286°
2026-05-08 03:27 60.15238 -21.14268 36204 ft 485 kts 286°
2026-05-08 03:28 60.16954 -21.27364 36209 ft 484 kts 286°
2026-05-08 03:28 60.18655 -21.40451 36212 ft 484 kts 286°
2026-05-08 03:29 60.20345 -21.53573 36214 ft 484 kts 286°
2026-05-08 03:29 60.22021 -21.66691 36222 ft 484 kts 286°
2026-05-08 03:30 60.24509 -21.86386 36223 ft 484 kts 286°
2026-05-08 03:31 60.27766 -22.12582 36235 ft 483 kts 286°
2026-05-08 03:32 60.30182 -22.32317 36237 ft 483 kts 286°
2026-05-08 03:32 60.31776 -22.45482 36237 ft 483 kts 286°
2026-05-08 03:33 60.33354 -22.58642 36251 ft 483 kts 286°
2026-05-08 03:33 60.34920 -22.71827 36253 ft 482 kts 286°
2026-05-08 03:34 60.36472 -22.85003 36252 ft 482 kts 286°
2026-05-08 03:34 60.38011 -22.98195 36257 ft 482 kts 285°
2026-05-08 03:35 60.39536 -23.11397 36265 ft 482 kts 285°
2026-05-08 03:35 60.41045 -23.24589 36261 ft 482 kts 285°
2026-05-08 03:36 60.42545 -23.37822 36270 ft 482 kts 285°
2026-05-08 03:36 60.44029 -23.51043 36271 ft 481 kts 285°
2026-05-08 03:37 60.45500 -23.64268 36276 ft 481 kts 285°
2026-05-08 03:37 60.46956 -23.77491 36278 ft 481 kts 285°
2026-05-08 03:38 60.48399 -23.90729 36282 ft 480 kts 285°
2026-05-08 03:38 60.49828 -24.03978 36289 ft 480 kts 285°
2026-05-08 03:39 60.51241 -24.17211 36295 ft 480 kts 285°
2026-05-08 03:39 60.52631 -24.30374 36298 ft 480 kts 285°
2026-05-08 03:40 60.54016 -24.43628 36297 ft 479 kts 285°
2026-05-08 03:40 60.55390 -24.56885 36304 ft 479 kts 285°
2026-05-08 03:41 60.56749 -24.70141 36305 ft 479 kts 285°
2026-05-08 03:41 60.58093 -24.83399 36307 ft 478 kts 285°
2026-05-08 03:42 60.59422 -24.96650 36314 ft 478 kts 285°
2026-05-08 03:42 60.60738 -25.09904 36317 ft 477 kts 285°
2026-05-08 03:43 60.62039 -25.23154 36323 ft 477 kts 285°
2026-05-08 03:43 60.63326 -25.36396 36327 ft 476 kts 285°
2026-05-08 03:44 60.64589 -25.49550 36329 ft 476 kts 285°
2026-05-08 03:44 60.65846 -25.62787 36329 ft 475 kts 286°
2026-05-08 03:45 60.67089 -25.76015 36336 ft 474 kts 286°
2026-05-08 03:45 60.68315 -25.89222 36338 ft 473 kts 286°
2026-05-08 03:46 60.69527 -26.02422 36346 ft 473 kts 286°
2026-05-08 03:46 60.70725 -26.15602 36346 ft 472 kts 286°
2026-05-08 03:47 60.71909 -26.28784 36351 ft 471 kts 286°
2026-05-08 03:47 60.73078 -26.41962 36356 ft 471 kts 286°
2026-05-08 03:48 60.74230 -26.55105 36357 ft 470 kts 286°
2026-05-08 03:48 60.75371 -26.68270 36358 ft 469 kts 286°
2026-05-08 03:49 60.76486 -26.81307 36365 ft 468 kts 286°
2026-05-08 03:49 60.77599 -26.94457 36366 ft 468 kts 286°
2026-05-08 03:50 60.78694 -27.07566 36375 ft 467 kts 285°
2026-05-08 03:50 60.79776 -27.20677 36383 ft 467 kts 285°
2026-05-08 03:51 60.80843 -27.33778 36375 ft 466 kts 285°
2026-05-08 03:51 60.81897 -27.46877 36379 ft 466 kts 285°
2026-05-08 03:52 60.82937 -27.59976 36377 ft 465 kts 285°
2026-05-08 03:52 60.83965 -27.73073 36380 ft 465 kts 285°
2026-05-08 03:53 60.84977 -27.86160 36382 ft 465 kts 285°
2026-05-08 03:53 60.85977 -27.99257 36383 ft 465 kts 284°
2026-05-08 03:54 60.86957 -28.12268 36384 ft 464 kts 284°
2026-05-08 03:54 60.87932 -28.25379 36383 ft 464 kts 284°
2026-05-08 03:55 60.88891 -28.38471 36380 ft 464 kts 284°
2026-05-08 03:55 60.89839 -28.51576 36386 ft 463 kts 284°
2026-05-08 03:56 60.90772 -28.64671 36382 ft 463 kts 284°
2026-05-08 03:56 60.91692 -28.77770 36394 ft 463 kts 283°
2026-05-08 03:57 60.92600 -28.90880 36395 ft 463 kts 283°
2026-05-08 03:57 60.93497 -29.04009 36395 ft 463 kts 283°
2026-05-08 03:58 60.94381 -29.17147 36398 ft 463 kts 283°
2026-05-08 03:58 60.95251 -29.30284 36401 ft 464 kts 283°
2026-05-08 03:59 60.96108 -29.43453 36399 ft 463 kts 282°
2026-05-08 03:59 60.96952 -29.56612 36406 ft 464 kts 282°
2026-05-08 04:00 60.97783 -29.69780 36407 ft 463 kts 282°
2026-05-08 04:00 60.98598 -29.82864 36405 ft 463 kts 282°
2026-05-08 04:01 60.99404 -29.96027 36407 ft 463 kts 282°
2026-05-08 04:01 61.00119 -30.09247 36414 ft 465 kts 279°
2026-05-08 04:02 61.00556 -30.22568 36409 ft 466 kts 278°
2026-05-08 04:02 61.00954 -30.35901 36409 ft 466 kts 278°
2026-05-08 04:03 61.01379 -30.49222 36413 ft 465 kts 278°
2026-05-08 04:03 61.02029 -30.69125 36418 ft 465 kts 278°
2026-05-08 04:04 61.02450 -30.82437 36411 ft 465 kts 277°
2026-05-08 04:04 61.02857 -30.95761 36413 ft 465 kts 277°
2026-05-08 04:05 61.03250 -31.09087 36415 ft 465 kts 277°
2026-05-08 04:05 61.03628 -31.22398 36417 ft 465 kts 277°
2026-05-08 04:06 61.03994 -31.35717 36413 ft 465 kts 276°
2026-05-08 04:06 61.04346 -31.49046 36412 ft 465 kts 276°
2026-05-08 04:07 61.04686 -31.62370 36421 ft 465 kts 276°
2026-05-08 04:07 61.05013 -31.75686 36414 ft 465 kts 276°
2026-05-08 04:08 61.05326 -31.89003 36402 ft 465 kts 276°
2026-05-08 04:08 61.05626 -32.02337 36406 ft 465 kts 275°
2026-05-08 04:09 61.05865 -32.13411 36408 ft 465 kts 275°
2026-05-08 04:09 61.06185 -32.28898 36402 ft 465 kts 275°
2026-05-08 04:10 61.06446 -32.42238 36408 ft 464 kts 275°
2026-05-08 04:10 61.06693 -32.55558 36405 ft 464 kts 275°
2026-05-08 04:11 61.06928 -32.68902 36412 ft 465 kts 274°
2026-05-08 04:11 61.07113 -32.80010 36414 ft 465 kts 274°
2026-05-08 04:12 61.07324 -32.93351 36398 ft 465 kts 274°
2026-05-08 04:12 61.07520 -33.06716 36412 ft 465 kts 274°
2026-05-08 04:13 61.07704 -33.20074 36404 ft 465 kts 274°
2026-05-08 04:13 61.07874 -33.33369 36395 ft 465 kts 273°
2026-05-08 04:14 61.08033 -33.46749 36401 ft 465 kts 273°
2026-05-08 04:14 61.08177 -33.60134 36398 ft 465 kts 273°
2026-05-08 04:15 61.08309 -33.73504 36394 ft 465 kts 272°
2026-05-08 04:15 61.08427 -33.86801 36400 ft 465 kts 272°
2026-05-08 04:16 61.08532 -34.00164 36389 ft 465 kts 272°
2026-05-08 04:16 61.08623 -34.13516 36386 ft 464 kts 272°
2026-05-08 04:17 61.08702 -34.26855 36386 ft 464 kts 272°
2026-05-08 04:17 61.08767 -34.40191 36386 ft 464 kts 272°
2026-05-08 04:18 61.08820 -34.53523 36379 ft 463 kts 272°
2026-05-08 04:18 61.08859 -34.66857 36380 ft 463 kts 272°
2026-05-08 04:19 61.08885 -34.80083 36375 ft 463 kts 272°
2026-05-08 04:19 61.08898 -34.93399 36378 ft 463 kts 271°
2026-05-08 04:20 61.08898 -35.06707 36375 ft 463 kts 271°
2026-05-08 04:20 61.08884 -35.20028 36373 ft 463 kts 271°
2026-05-08 04:21 61.08858 -35.33321 36374 ft 463 kts 271°
2026-05-08 04:21 61.08819 -35.46626 36369 ft 463 kts 271°
2026-05-08 04:22 61.08767 -35.59943 36371 ft 463 kts 271°
2026-05-08 04:22 61.08701 -35.73254 36366 ft 463 kts 271°
2026-05-08 04:23 61.08622 -35.86577 36364 ft 463 kts 271°
2026-05-08 04:23 61.08530 -35.99876 36365 ft 463 kts 271°
2026-05-08 04:24 61.08426 -36.13109 36360 ft 463 kts 270°
2026-05-08 04:24 61.08308 -36.26398 36357 ft 463 kts 270°
2026-05-08 04:25 61.08177 -36.39702 36358 ft 463 kts 270°
2026-05-08 04:25 61.08033 -36.53002 36357 ft 463 kts 270°
2026-05-08 04:26 61.07876 -36.66295 36350 ft 463 kts 270°
2026-05-08 04:26 61.07706 -36.79586 36350 ft 463 kts 270°
2026-05-08 04:27 61.07524 -36.92880 36351 ft 463 kts 270°
2026-05-08 04:27 61.07327 -37.06178 36343 ft 463 kts 270°
2026-05-08 04:28 61.07226 -37.12815 36218 ft 462 kts 269°
2026-05-08 04:28 61.07122 -37.19457 36339 ft 463 kts 269°
2026-05-08 04:28 61.06899 -37.32747 36343 ft 462 kts 269°
2026-05-08 04:29 61.06665 -37.45934 36342 ft 462 kts 268°
2026-05-08 04:29 61.06417 -37.59214 36340 ft 463 kts 268°
2026-05-08 04:30 61.06156 -37.72494 36336 ft 463 kts 268°
2026-05-08 04:30 61.05881 -37.85779 36332 ft 463 kts 268°
2026-05-08 04:31 61.05593 -37.99051 36332 ft 463 kts 268°
2026-05-08 04:31 61.05292 -38.12346 36342 ft 463 kts 268°
2026-05-08 04:32 61.04978 -38.25617 36325 ft 463 kts 268°
2026-05-08 04:32 61.04652 -38.38889 36328 ft 463 kts 267°
2026-05-08 04:33 61.04312 -38.52159 36318 ft 463 kts 267°
2026-05-08 04:33 61.03960 -38.65430 36315 ft 463 kts 267°
2026-05-08 04:34 61.03595 -38.78700 36313 ft 463 kts 267°
2026-05-08 04:34 61.03216 -38.91974 36324 ft 463 kts 267°
2026-05-08 04:35 61.02827 -39.05148 36317 ft 463 kts 266°
2026-05-08 04:35 61.02423 -39.18411 36319 ft 463 kts 266°
2026-05-08 04:36 61.02005 -39.31667 36311 ft 463 kts 266°
2026-05-08 04:36 61.01575 -39.44922 36304 ft 463 kts 266°
2026-05-08 04:37 61.01130 -39.58184 36309 ft 463 kts 266°
2026-05-08 04:37 61.00673 -39.71434 36299 ft 464 kts 266°
2026-05-08 04:38 61.00204 -39.84683 36303 ft 464 kts 265°
2026-05-08 04:38 60.99721 -39.97933 36294 ft 464 kts 265°
2026-05-08 04:39 60.99094 -40.11154 36290 ft 464 kts 263°
2026-05-08 04:39 60.98223 -40.24333 36291 ft 464 kts 262°
2026-05-08 04:40 60.97337 -40.37508 36289 ft 465 kts 262°
2026-05-08 04:40 60.96477 -40.50708 36288 ft 464 kts 262°
2026-05-08 04:41 60.95624 -40.63877 36289 ft 464 kts 262°
2026-05-08 04:41 60.94761 -40.77045 36287 ft 464 kts 262°
2026-05-08 04:42 60.93885 -40.90191 36278 ft 464 kts 262°
2026-05-08 04:42 60.92994 -41.03336 36279 ft 464 kts 261°
2026-05-08 04:43 60.92096 -41.16375 36278 ft 463 kts 261°
2026-05-08 04:43 60.91182 -41.29471 36276 ft 463 kts 261°
2026-05-08 04:44 60.90256 -41.42553 36276 ft 462 kts 261°
2026-05-08 04:44 60.89317 -41.55618 36272 ft 462 kts 261°
2026-05-08 04:45 60.88366 -41.68663 36271 ft 462 kts 261°
2026-05-08 04:45 60.87403 -41.81702 36269 ft 461 kts 261°
2026-05-08 04:46 60.86430 -41.94700 36264 ft 461 kts 260°
2026-05-08 04:46 60.85446 -42.07679 36267 ft 460 kts 260°
2026-05-08 04:47 60.84449 -42.20654 36262 ft 460 kts 260°
2026-05-08 04:47 60.83442 -42.33586 36261 ft 459 kts 260°
2026-05-08 04:48 60.82421 -42.46517 36257 ft 459 kts 260°
2026-05-08 04:48 60.81395 -42.59345 36256 ft 459 kts 259°
2026-05-08 04:49 60.80351 -42.72245 36261 ft 459 kts 259°
2026-05-08 04:49 60.79296 -42.85119 36255 ft 458 kts 259°
2026-05-08 04:50 60.78230 -42.97978 36257 ft 458 kts 259°
2026-05-08 04:50 60.77152 -43.10813 36259 ft 458 kts 259°
2026-05-08 04:51 60.76062 -43.23645 36260 ft 457 kts 259°
2026-05-08 04:51 60.74962 -43.36456 36256 ft 457 kts 258°
2026-05-08 04:52 60.73850 -43.49233 36252 ft 457 kts 258°
2026-05-08 04:52 60.72725 -43.62018 36247 ft 456 kts 258°
2026-05-08 04:53 60.71589 -43.74782 36239 ft 456 kts 258°
2026-05-08 04:53 60.70443 -43.87520 36234 ft 456 kts 258°
2026-05-08 04:54 60.69286 -44.00221 36229 ft 455 kts 257°
2026-05-08 04:54 60.68115 -44.12927 36216 ft 455 kts 257°
2026-05-08 04:55 60.66944 -44.25517 36210 ft 454 kts 257°
2026-05-08 04:55 60.65754 -44.38163 36206 ft 454 kts 257°
2026-05-08 04:56 60.64553 -44.50795 36198 ft 454 kts 257°
2026-05-08 04:56 60.63338 -44.63436 36190 ft 454 kts 256°
2026-05-08 04:57 60.62113 -44.76048 36185 ft 454 kts 256°
2026-05-08 04:57 60.60876 -44.88661 36184 ft 454 kts 256°
2026-05-08 04:58 60.59627 -45.01255 36175 ft 454 kts 256°
2026-05-08 04:58 60.58580 -45.11721 36175 ft 454 kts 256°
2026-05-08 04:59 60.57307 -45.24326 36152 ft 454 kts 256°
2026-05-08 04:59 60.56022 -45.36908 36145 ft 455 kts 255°
2026-05-08 05:00 60.54727 -45.49479 36142 ft 455 kts 255°
2026-05-08 05:00 60.53417 -45.62062 36139 ft 455 kts 255°
2026-05-08 05:01 60.52097 -45.74622 36139 ft 455 kts 255°
2026-05-08 05:01 60.50767 -45.87163 36131 ft 454 kts 255°
2026-05-08 05:02 60.49427 -45.99679 36129 ft 454 kts 255°
2026-05-08 05:02 60.48073 -46.12186 36132 ft 454 kts 254°
2026-05-08 05:03 60.46711 -46.24669 36127 ft 453 kts 254°
2026-05-08 05:03 60.45338 -46.37130 36123 ft 453 kts 254°
2026-05-08 05:04 60.43960 -46.49519 36119 ft 453 kts 254°
2026-05-08 05:04 60.42563 -46.61961 36119 ft 453 kts 254°
2026-05-08 05:05 60.41156 -46.74385 36112 ft 453 kts 254°
2026-05-08 05:05 60.39737 -46.86800 36108 ft 453 kts 254°
2026-05-08 05:06 60.38305 -46.99207 36104 ft 452 kts 254°
2026-05-08 05:06 60.36866 -47.11574 36098 ft 452 kts 254°
2026-05-08 05:07 60.35416 -47.23920 36096 ft 452 kts 254°
2026-05-08 05:07 60.33954 -47.36255 36086 ft 451 kts 254°
2026-05-08 05:08 60.32484 -47.48556 36081 ft 450 kts 254°
2026-05-08 05:08 60.31004 -47.60831 36073 ft 450 kts 254°
2026-05-08 05:09 60.29525 -47.72993 36072 ft 449 kts 254°
2026-05-08 05:09 60.28028 -47.85207 36063 ft 448 kts 254°
2026-05-08 05:10 60.25766 -48.03479 36047 ft 448 kts 254°
2026-05-08 05:11 60.24244 -48.15630 36048 ft 448 kts 253°
2026-05-08 05:11 60.22710 -48.27785 36037 ft 447 kts 253°
2026-05-08 05:12 60.21169 -48.39894 36021 ft 447 kts 253°
2026-05-08 05:12 60.19627 -48.51907 36022 ft 446 kts 253°
2026-05-08 05:13 60.18067 -48.63974 36014 ft 446 kts 253°
2026-05-08 05:13 60.16500 -48.76010 36010 ft 445 kts 253°
2026-05-08 05:14 60.14920 -48.88037 35997 ft 445 kts 252°
2026-05-08 05:14 60.13330 -49.00056 35996 ft 445 kts 252°
2026-05-08 05:15 60.11730 -49.12050 35988 ft 445 kts 252°
2026-05-08 05:15 60.10121 -49.24027 35979 ft 445 kts 252°
2026-05-08 05:16 60.08501 -49.35994 35964 ft 445 kts 251°
2026-05-08 05:16 60.06870 -49.47949 35971 ft 445 kts 251°
2026-05-08 05:17 60.05227 -49.59889 35954 ft 445 kts 251°
2026-05-08 05:17 60.03584 -49.71743 35956 ft 445 kts 251°
2026-05-08 05:18 60.01919 -49.83664 35946 ft 445 kts 250°
2026-05-08 05:18 60.00242 -49.95592 35947 ft 446 kts 250°
2026-05-08 05:19 59.98525 -50.07505 36178 ft 447 kts 249°
2026-05-08 05:19 59.97610 -50.13426 36530 ft 445 kts 249°
2026-05-08 05:19 59.96680 -50.19324 36839 ft 444 kts 248°
2026-05-08 05:19 59.95750 -50.25201 37125 ft 444 kts 248°
2026-05-08 05:20 59.94821 -50.31073 37408 ft 444 kts 248°
2026-05-08 05:20 59.93895 -50.36950 37667 ft 444 kts 248°
2026-05-08 05:20 59.92968 -50.42835 37882 ft 445 kts 248°
2026-05-08 05:21 59.91113 -50.54588 37919 ft 444 kts 248°
2026-05-08 05:21 59.89253 -50.66317 37909 ft 444 kts 247°
2026-05-08 05:22 59.87376 -50.78050 37886 ft 444 kts 247°
2026-05-08 05:22 59.85504 -50.89666 37888 ft 444 kts 247°
2026-05-08 05:23 59.83609 -51.01345 37892 ft 444 kts 246°
2026-05-08 05:23 59.81689 -51.13100 37882 ft 444 kts 246°
2026-05-08 05:24 59.79786 -51.24677 37867 ft 444 kts 246°
2026-05-08 05:24 59.77859 -51.36325 37864 ft 444 kts 246°
2026-05-08 05:25 59.75919 -51.47972 37859 ft 444 kts 246°
2026-05-08 05:25 59.73966 -51.59630 37850 ft 445 kts 245°
2026-05-08 05:26 59.72005 -51.71256 37844 ft 445 kts 245°
2026-05-08 05:26 59.70031 -51.82883 37840 ft 445 kts 245°
2026-05-08 05:27 59.68050 -51.94480 37834 ft 445 kts 245°
2026-05-08 05:27 59.66052 -52.06102 37821 ft 446 kts 245°
2026-05-08 05:28 59.64056 -52.17641 37819 ft 446 kts 244°
2026-05-08 05:28 59.62033 -52.29256 37814 ft 447 kts 244°
2026-05-08 05:29 59.59999 -52.40866 37805 ft 448 kts 244°
2026-05-08 05:29 59.57947 -52.52497 37800 ft 448 kts 244°
2026-05-08 05:30 59.55887 -52.64110 37804 ft 449 kts 244°
2026-05-08 05:30 59.53813 -52.75732 37797 ft 449 kts 244°
2026-05-08 05:31 59.51742 -52.87265 37787 ft 450 kts 243°
2026-05-08 05:31 59.49632 -52.98943 37785 ft 450 kts 243°
2026-05-08 05:32 59.47536 -53.10469 37770 ft 450 kts 243°
2026-05-08 05:32 59.45414 -53.22063 37760 ft 451 kts 243°
2026-05-08 05:33 59.43277 -53.33667 37755 ft 451 kts 243°
2026-05-08 05:33 59.41133 -53.45249 37748 ft 451 kts 243°
2026-05-08 05:34 59.38975 -53.56838 37740 ft 452 kts 242°
2026-05-08 05:34 59.36808 -53.68399 37731 ft 452 kts 242°
2026-05-08 05:35 59.34627 -53.79963 37723 ft 453 kts 242°
2026-05-08 05:35 59.32431 -53.91534 37715 ft 453 kts 242°
2026-05-08 05:36 59.30227 -54.03090 37711 ft 454 kts 242°
2026-05-08 05:36 59.28008 -54.14653 37700 ft 454 kts 242°
2026-05-08 05:37 59.25778 -54.26209 37691 ft 455 kts 241°
2026-05-08 05:37 59.23531 -54.37774 37681 ft 455 kts 241°
2026-05-08 05:38 59.21272 -54.49340 37679 ft 456 kts 241°
2026-05-08 05:38 59.19012 -54.60837 37667 ft 457 kts 241°
2026-05-08 05:39 59.16728 -54.72394 37659 ft 457 kts 241°
2026-05-08 05:39 59.14426 -54.83966 37655 ft 458 kts 240°
2026-05-08 05:40 59.12115 -54.95523 37652 ft 458 kts 240°
2026-05-08 05:40 59.09790 -55.07084 37632 ft 459 kts 240°
2026-05-08 05:41 59.07452 -55.18643 37627 ft 459 kts 240°
2026-05-08 05:41 59.05102 -55.30191 37614 ft 460 kts 240°
2026-05-08 05:42 59.02738 -55.41743 37609 ft 460 kts 240°
2026-05-08 05:42 59.00363 -55.53283 37602 ft 461 kts 240°
2026-05-08 05:43 58.97992 -55.64738 37593 ft 461 kts 240°
2026-05-08 05:43 58.95595 -55.76257 37587 ft 461 kts 239°
2026-05-08 05:44 58.93184 -55.87778 37575 ft 461 kts 239°
2026-05-08 05:44 58.90762 -55.99284 37567 ft 462 kts 239°
2026-05-08 05:45 58.88330 -56.10775 37562 ft 462 kts 239°
2026-05-08 05:45 58.85885 -56.22260 37554 ft 462 kts 239°
2026-05-08 05:46 58.83423 -56.33759 37545 ft 463 kts 239°
2026-05-08 05:46 58.81374 -56.43286 37528 ft 463 kts 239°
2026-05-08 05:47 58.78490 -56.56619 37527 ft 463 kts 239°
2026-05-08 05:47 58.75995 -56.68082 37523 ft 464 kts 239°
2026-05-08 05:48 58.73896 -56.77677 37515 ft 464 kts 239°
2026-05-08 05:48 58.71381 -56.89114 37509 ft 464 kts 238°
2026-05-08 05:49 58.68868 -57.00481 37499 ft 465 kts 238°
2026-05-08 05:49 58.66323 -57.11936 37493 ft 465 kts 238°
2026-05-08 05:50 58.63770 -57.23358 37487 ft 466 kts 238°
2026-05-08 05:50 58.61202 -57.34787 37476 ft 466 kts 238°
2026-05-08 05:51 58.58624 -57.46200 37473 ft 466 kts 238°
2026-05-08 05:51 58.56054 -57.57518 37463 ft 466 kts 238°
2026-05-08 05:52 58.53454 -57.68903 37463 ft 466 kts 238°
2026-05-08 05:52 58.50842 -57.80281 37453 ft 467 kts 238°
2026-05-08 05:53 58.48219 -57.91646 37443 ft 467 kts 238°
2026-05-08 05:53 58.45278 -58.02593 37439 ft 459 kts 230°
2026-05-08 05:54 58.41792 -58.12789 37430 ft 459 kts 229°
2026-05-08 05:54 58.38204 -58.22851 37427 ft 459 kts 229°
2026-05-08 05:55 58.34624 -58.32836 37427 ft 459 kts 229°
2026-05-08 05:55 58.31016 -58.42908 37419 ft 459 kts 229°
2026-05-08 05:56 58.27413 -58.52953 37413 ft 459 kts 229°
2026-05-08 05:56 58.23801 -58.62987 37409 ft 460 kts 229°
2026-05-08 05:57 58.20182 -58.72991 37407 ft 460 kts 229°
2026-05-08 05:57 58.16551 -58.82985 37393 ft 461 kts 229°
2026-05-08 05:58 58.12907 -58.92976 37394 ft 461 kts 228°
2026-05-08 05:58 58.09278 -59.02884 37394 ft 461 kts 228°
2026-05-08 05:59 58.05593 -59.12901 37388 ft 462 kts 228°
2026-05-08 05:59 58.01942 -59.22787 37384 ft 462 kts 228°
2026-05-08 06:00 57.98256 -59.32724 37378 ft 463 kts 228°
2026-05-08 06:00 57.94552 -59.42667 37374 ft 463 kts 228°
2026-05-08 06:01 57.90840 -59.52591 37375 ft 464 kts 228°
2026-05-08 06:01 57.87110 -59.62523 37376 ft 465 kts 228°
2026-05-08 06:02 57.83373 -59.72428 37374 ft 465 kts 228°
2026-05-08 06:02 57.79645 -59.82269 37370 ft 466 kts 228°
2026-05-08 06:03 57.75883 -59.92162 37374 ft 466 kts 228°
2026-05-08 06:03 57.72110 -60.02044 37371 ft 467 kts 228°
2026-05-08 06:04 57.68322 -60.11925 37370 ft 467 kts 228°
2026-05-08 06:04 57.64524 -60.21791 37371 ft 468 kts 228°
2026-05-08 06:05 57.60712 -60.31653 37374 ft 468 kts 228°
2026-05-08 06:05 57.56893 -60.41492 37365 ft 469 kts 228°
2026-05-08 06:06 57.53061 -60.51323 37380 ft 469 kts 228°
2026-05-08 06:06 57.49250 -60.61063 37384 ft 469 kts 228°
2026-05-08 06:07 57.45398 -60.70866 37390 ft 469 kts 228°
2026-05-08 06:07 57.41542 -60.80635 37396 ft 469 kts 227°
2026-05-08 06:08 57.37675 -60.90398 37403 ft 469 kts 227°
2026-05-08 06:08 57.33803 -61.00133 37410 ft 469 kts 227°
2026-05-08 06:09 57.29922 -61.09848 37417 ft 470 kts 227°
2026-05-08 06:09 57.26025 -61.19567 37418 ft 470 kts 227°
2026-05-08 06:10 57.22152 -61.29185 37422 ft 470 kts 227°
2026-05-08 06:10 57.18239 -61.38865 37431 ft 471 kts 227°
2026-05-08 06:11 57.14313 -61.48536 37438 ft 471 kts 227°
2026-05-08 06:11 57.10377 -61.58191 37443 ft 471 kts 227°
2026-05-08 06:12 57.06435 -61.67829 37445 ft 472 kts 227°
2026-05-08 06:12 57.02477 -61.77467 37450 ft 472 kts 227°
2026-05-08 06:13 56.98510 -61.87088 37448 ft 472 kts 227°
2026-05-08 06:13 56.94540 -61.96673 37457 ft 473 kts 227°
2026-05-08 06:14 56.90584 -62.06193 37460 ft 473 kts 227°
2026-05-08 06:14 56.86563 -62.15701 37471 ft 471 kts 224°
2026-05-08 06:15 56.82205 -62.24617 37467 ft 470 kts 222°
2026-05-08 06:15 56.77769 -62.33384 37473 ft 471 kts 222°
2026-05-08 06:16 56.73310 -62.42130 37476 ft 471 kts 221°
2026-05-08 06:16 56.68850 -62.50871 37483 ft 471 kts 222°
2026-05-08 06:17 56.62182 -62.63904 37479 ft 471 kts 222°
2026-05-08 06:17 56.57685 -62.72655 37493 ft 471 kts 221°
2026-05-08 06:18 56.53235 -62.81282 37497 ft 471 kts 221°
2026-05-08 06:18 56.48747 -62.89949 37502 ft 472 kts 221°
2026-05-08 06:19 56.44254 -62.98595 37507 ft 472 kts 221°
2026-05-08 06:19 56.39754 -63.07219 37515 ft 472 kts 221°
2026-05-08 06:20 56.35240 -63.15841 37522 ft 472 kts 221°
2026-05-08 06:20 56.30729 -63.24425 37526 ft 472 kts 221°
2026-05-08 06:21 56.26198 -63.33015 37530 ft 472 kts 221°
2026-05-08 06:21 56.21671 -63.41566 37535 ft 473 kts 221°
2026-05-08 06:22 56.17133 -63.50105 37538 ft 473 kts 221°
2026-05-08 06:22 56.12587 -63.58629 37542 ft 473 kts 221°
2026-05-08 06:23 56.08034 -63.67137 37552 ft 473 kts 221°
2026-05-08 06:23 56.03475 -63.75625 37556 ft 473 kts 221°
2026-05-08 06:24 55.98906 -63.84098 37561 ft 473 kts 221°
2026-05-08 06:24 55.94358 -63.92503 37566 ft 473 kts 221°
2026-05-08 06:25 55.89778 -64.00939 37574 ft 474 kts 221°
2026-05-08 06:25 55.85192 -64.09353 37567 ft 474 kts 221°
2026-05-08 06:26 55.80592 -64.17761 37574 ft 474 kts 221°
2026-05-08 06:26 55.75990 -64.26146 37583 ft 474 kts 221°
2026-05-08 06:27 55.71376 -64.34520 37575 ft 475 kts 221°
2026-05-08 06:27 55.66751 -64.42884 37596 ft 475 kts 221°
2026-05-08 06:28 55.62118 -64.51228 37600 ft 475 kts 221°
2026-05-08 06:28 55.57473 -64.59570 37594 ft 475 kts 221°
2026-05-08 06:29 55.52822 -64.67893 37598 ft 476 kts 220°
2026-05-08 06:29 55.48197 -64.76138 37599 ft 476 kts 220°
2026-05-08 06:30 55.43530 -64.84427 37605 ft 476 kts 220°
2026-05-08 06:30 55.38859 -64.92696 37606 ft 476 kts 220°
2026-05-08 06:31 55.34185 -65.00940 37607 ft 476 kts 220°
2026-05-08 06:31 55.29504 -65.09169 37614 ft 476 kts 220°
2026-05-08 06:32 55.24814 -65.17383 37615 ft 476 kts 220°
2026-05-08 06:32 55.20117 -65.25580 37617 ft 476 kts 220°
2026-05-08 06:33 55.15409 -65.33769 37624 ft 477 kts 220°
2026-05-08 06:33 55.10732 -65.41874 37624 ft 477 kts 220°
2026-05-08 06:34 55.06019 -65.50012 37627 ft 477 kts 220°
2026-05-08 06:34 55.01298 -65.58136 37631 ft 477 kts 220°
2026-05-08 06:35 54.96564 -65.66254 37633 ft 477 kts 220°
2026-05-08 06:35 54.91834 -65.74337 37634 ft 477 kts 220°
2026-05-08 06:36 54.87096 -65.82404 37638 ft 477 kts 220°
2026-05-08 06:36 54.82352 -65.90454 37644 ft 477 kts 220°
2026-05-08 06:37 54.78404 -65.97133 37649 ft 477 kts 220°
2026-05-08 06:37 54.72872 -66.06456 37653 ft 477 kts 220°
2026-05-08 06:38 54.68883 -66.13159 37653 ft 477 kts 220°
2026-05-08 06:38 54.64114 -66.21145 37654 ft 477 kts 220°
2026-05-08 06:39 54.59368 -66.29066 37656 ft 478 kts 220°
2026-05-08 06:39 54.54586 -66.37018 37657 ft 477 kts 220°
2026-05-08 06:40 54.49803 -66.44947 37659 ft 478 kts 220°
2026-05-08 06:40 54.45007 -66.52869 37663 ft 478 kts 220°
2026-05-08 06:41 54.40204 -66.60776 37662 ft 478 kts 220°
2026-05-08 06:41 54.35404 -66.68651 37671 ft 478 kts 220°
2026-05-08 06:42 54.30587 -66.76525 37667 ft 478 kts 220°
2026-05-08 06:42 54.25775 -66.84367 37671 ft 478 kts 220°
2026-05-08 06:43 54.20951 -66.92201 37677 ft 478 kts 220°
2026-05-08 06:43 54.16190 -67.00168 37868 ft 481 kts 224°
2026-05-08 06:44 54.13973 -67.04446 38209 ft 480 kts 225°
2026-05-08 06:44 54.11790 -67.08751 38466 ft 479 kts 225°
2026-05-08 06:44 54.09630 -67.13060 38652 ft 479 kts 225°
2026-05-08 06:44 54.07471 -67.17385 38834 ft 479 kts 226°
2026-05-08 06:45 54.05310 -67.21711 38991 ft 480 kts 226°
2026-05-08 06:45 54.03148 -67.26028 39161 ft 480 kts 225°
2026-05-08 06:45 54.00979 -67.30347 39322 ft 480 kts 225°
2026-05-08 06:45 53.98807 -67.34659 39484 ft 480 kts 225°
2026-05-08 06:46 53.96633 -67.38961 39638 ft 480 kts 225°
2026-05-08 06:46 53.94450 -67.43269 39691 ft 481 kts 225°
2026-05-08 06:46 53.90114 -67.51806 39697 ft 480 kts 225°
2026-05-08 06:47 53.85742 -67.60382 39702 ft 480 kts 225°
2026-05-08 06:47 53.81368 -67.68931 39701 ft 481 kts 225°
2026-05-08 06:48 53.76986 -67.77464 39703 ft 481 kts 225°
2026-05-08 06:48 53.72586 -67.86003 39705 ft 481 kts 225°
2026-05-08 06:49 53.68189 -67.94507 39712 ft 481 kts 225°
2026-05-08 06:49 53.63804 -68.02959 39715 ft 481 kts 225°
2026-05-08 06:50 53.59398 -68.11423 39717 ft 481 kts 225°
2026-05-08 06:50 53.54981 -68.19881 39723 ft 481 kts 225°
2026-05-08 06:51 53.50564 -68.28306 39722 ft 481 kts 225°
2026-05-08 06:51 53.46131 -68.36732 39725 ft 481 kts 225°
2026-05-08 06:52 53.41695 -68.45136 39734 ft 481 kts 225°
2026-05-08 06:52 53.37286 -68.53459 39737 ft 481 kts 225°
2026-05-08 06:53 53.32840 -68.61826 39738 ft 481 kts 225°
2026-05-08 06:53 53.28386 -68.70176 39735 ft 481 kts 225°
2026-05-08 06:54 53.23928 -68.78508 39741 ft 481 kts 225°
2026-05-08 06:54 53.19469 -68.86816 39742 ft 481 kts 225°
2026-05-08 06:55 53.14998 -68.95115 39747 ft 481 kts 225°
2026-05-08 06:55 53.10521 -69.03399 39747 ft 481 kts 225°
2026-05-08 06:56 53.06039 -69.11663 39750 ft 481 kts 225°
2026-05-08 06:56 53.01584 -69.19850 39754 ft 481 kts 225°
2026-05-08 06:57 52.97089 -69.28083 39757 ft 481 kts 225°
2026-05-08 06:57 52.92591 -69.36294 39759 ft 481 kts 224°
2026-05-08 06:58 52.88090 -69.44485 39761 ft 481 kts 224°
2026-05-08 06:58 52.83584 -69.52654 39761 ft 481 kts 224°
2026-05-08 06:59 52.79071 -69.60812 39755 ft 481 kts 224°
2026-05-08 06:59 52.74550 -69.68957 39761 ft 481 kts 224°
2026-05-08 07:00 52.70028 -69.77075 39764 ft 481 kts 224°
2026-05-08 07:00 52.65491 -69.85188 39770 ft 481 kts 224°
2026-05-08 07:01 52.60955 -69.93280 39771 ft 481 kts 224°
2026-05-08 07:01 52.56412 -70.01357 39769 ft 481 kts 224°
2026-05-08 07:02 52.51898 -70.09356 39774 ft 481 kts 224°
2026-05-08 07:02 52.47344 -70.17396 39772 ft 481 kts 224°
2026-05-08 07:03 52.42785 -70.25422 39781 ft 480 kts 224°
2026-05-08 07:03 52.38227 -70.33420 39776 ft 481 kts 224°
2026-05-08 07:04 52.33672 -70.41387 39782 ft 481 kts 224°
2026-05-08 07:04 52.29088 -70.49380 39787 ft 481 kts 224°
2026-05-08 07:05 52.24507 -70.57340 39785 ft 481 kts 224°
2026-05-08 07:05 52.19919 -70.65285 39783 ft 481 kts 224°
2026-05-08 07:06 52.15328 -70.73211 39787 ft 481 kts 224°
2026-05-08 07:06 52.10768 -70.81060 39787 ft 481 kts 224°
2026-05-08 07:07 52.06131 -70.89014 39788 ft 481 kts 224°
2026-05-08 07:07 52.01524 -70.96897 39787 ft 481 kts 224°
2026-05-08 07:08 51.96939 -71.04716 39784 ft 481 kts 224°
2026-05-08 07:08 51.92322 -71.12562 39787 ft 481 kts 224°
2026-05-08 07:09 51.87700 -71.20390 39785 ft 481 kts 224°